CW8989 Weather Reports


Display with metric or nautical units.
time (UTC)temp
F
wind
direction
speed
MPH
gust
MPH
rain 1hr
in
rain 24hr
in
rain mn
in
humidity
%
barometer
mb
20260504204548 75 134 0.0 0.0 0.00 0.00 0.00 45 1014.2
20260504203033 75 280 0.0 0.0 0.00 0.00 0.00 45 1014.3
20260504201522 75 101 0.0 0.0 0.00 0.00 0.00 41 1014.4
20260504200019 75 234 0.0 0.0 0.00 0.00 0.00 45 1014.6
20260504194511 76 254 0.0 0.0 0.00 0.00 0.00 40 1014.9
20260504193010 76 157 0.0 0.0 0.00 0.00 0.00 40 1015.1
20260504191603 75 220 0.0 0.0 0.00 0.00 0.00 41 1015.3
20260504191502 75 211 0.0 0.0 0.00 0.00 0.00 44 1015.4
20260504190049 75 207 0.0 0.0 0.00 0.00 0.00 41 1015.5
20260504184539 76 185 0.0 0.0 0.00 0.00 0.00 48 1015.6
20260504183034 76 269 0.0 0.0 0.00 0.00 0.00 49 1015.8
20260504181525 75 267 0.0 0.0 0.00 0.00 0.00 45 1016.1
20260504180019 75 129 0.0 0.0 0.00 0.00 0.00 47 1016.3
20260504174507 75 105 0.0 0.0 0.00 0.00 0.00 48 1016.5
20260504173053 73 212 0.0 0.0 0.00 0.00 0.00 46 1016.7
20260504171548 74 138 0.0 0.0 0.00 0.00 0.00 48 1017.0
20260504160106 72 196 0.0 0.0 0.00 0.00 0.00 51 1017.6
20260504120105 42 355 0.0 0.0 0.00 0.00 0.00 90 1018.2
20260504081531 41 360 0.0 0.0 0.00 0.00 0.00 88 1017.8
20260504044521 44 360 0.0 0.0 0.00 0.00 0.00 85 1018.8
20260504043020 45 360 0.0 0.0 0.00 0.00 0.00 85 1018.8
20260504041509 45 360 0.0 0.0 0.00 0.00 0.00 85 1019.1
20260504040107 45 360 0.0 0.0 0.00 0.00 0.00 84 1019.1
20260504034629 46 360 0.0 0.0 0.00 0.00 0.00 83 1019.1
20260504033054 46 360 0.0 0.0 0.00 0.00 0.00 83 1019.1
20260504031556 47 360 0.0 0.0 0.00 0.00 0.00 82 1018.9
20260504030117 47 360 0.0 0.0 0.00 0.00 0.00 82 1019.1
20260504024554 48 360 0.0 0.0 0.00 0.00 0.00 81 1018.9
20260504023047 49 360 0.0 0.0 0.00 0.00 0.00 80 1018.8
20260504021549 49 360 0.0 0.0 0.00 0.00 0.00 79 1018.5
20260504020033 50 360 0.0 0.0 0.00 0.00 0.00 78 1018.5
20260504014528 51 333 0.0 0.0 0.00 0.00 0.00 77 1018.3
20260504013028 52 334 0.0 0.0 0.00 0.00 0.00 76 1018.2
20260504011519 53 333 0.0 0.0 0.00 0.00 0.00 74 1018.1
20260504010009 54 333 0.0 0.0 0.00 0.00 0.00 73 1017.8
20260504004515 56 333 0.0 0.0 0.00 0.00 0.00 71 1017.7
20260504003007 57 333 0.0 0.0 0.00 0.00 0.00 66 1017.5
20260504001507 59 333 0.0 0.0 0.00 0.00 0.00 65 1017.4
20260504000006 62 333 0.0 0.0 0.00 0.00 0.00 61 1017.4
20260503234559 64 333 0.0 1.0 0.00 0.00 0.00 53 1017.5
20260503234502 64 332 0.0 1.0 0.00 0.00 0.00 51 1017.5
20260503233101 65 333 0.0 1.0 0.00 0.00 0.00 49 1017.4
20260503231552 66 333 0.0 2.0 0.00 0.00 0.00 48 1017.6
20260503230049 66 314 0.0 2.0 0.00 0.00 0.00 46 1017.6
20260503224545 66 284 1.0 3.0 0.00 0.00 0.00 46 1017.6
20260503223034 66 291 0.0 2.0 0.00 0.00 0.00 45 1017.6
20260503221528 66 286 2.0 5.0 0.00 0.00 0.00 46 1017.7
20260503220017 66 291 0.0 3.0 0.00 0.00 0.00 46 1017.7
20260503214512 66 294 0.0 4.0 0.00 0.00 0.00 47 1017.9
20260503213013 66 303 0.0 4.0 0.00 0.00 0.00 46 1018.0
20260503211504 66 331 1.0 4.0 0.00 0.00 0.00 46 1018.2
20260503210055 65 340 3.0 9.0 0.00 0.00 0.00 43 1018.4